Location: Boise
(43.6140°N, 116.2030°W)
Time: 16:49:10
(UTC-06:00)

Daily predictions for brighter satellites

Satellite Brightness Start Highest point End
(mag) Time Altitude Azimuth Time Altitude Azimuth Time Altitude Azimuth
Meteor 1-27 4.3 20:57:25 10° S 21:03:01 60° E 21:08:34 10° NNE
Cosmos 2278 Rocket 2.4 20:57:47 10° NNW 21:03:27 62° ENE 21:09:03 10° SE
Cosmos 1515 Rocket 4.1 21:02:23 10° SSE 21:06:32 40° E 21:10:42 10° NNE
Lacrosse 5 4.0 21:04:30 10° NW 21:08:07 19° N 21:11:45 10° NE
Cosmos 1825 3.0 21:06:48 10° NNE 21:10:14 31° ENE 21:13:38 10° SE
Cosmos 1371 Rocket 4.5 21:11:38 10° S 21:16:33 40° ESE 21:21:32 10° NE
Envisat 3.4 21:15:46 10° S 21:20:48 69° WSW 21:25:54 10° NNW
Cosmos 1328 Rocket 3.6 21:17:06 10° S 21:21:30 85° E 21:25:59 10° N
Nadezhda 3 Rocket 4.5 21:17:36 10° NNW 21:23:53 68° W 21:30:11 10° S
H-2A R/B 3.6 21:24:03 10° ESE 21:27:24 18° ENE 21:30:43 10° NNE
Cosmos 2228 Rocket 3.0 21:23:06 10° S 21:27:27 67° E 21:31:50 10° NNE
Cosmos 1408 2.6 21:28:33 10° N 21:32:13 68° E 21:35:54 10° SSE
CZ-4C R/B 3.6 21:29:41 10° SE 21:32:21 14° ESE 21:35:09 10° ENE
Meteor 2-10 Rocket 4.2 21:30:05 10° SSE 21:35:27 42° E 21:40:53 10° NNE
ARGOS 4.1 21:33:05 12° ESE 21:37:10 30° ENE 21:41:46 10° N
Cosmos 2056 Rocket 3.8 21:32:25 10° S 21:37:36 49° ESE 21:42:47 10° NNE
Cosmos 1470 Rocket 3.7 21:33:20 10° N 21:37:46 81° W 21:42:13 10° S
Cosmos 1140 Rocket 4.5 21:40:41 10° N 21:45:14 30° ENE 21:48:26 16° ESE
SL-16 R/B 2.5 21:41:23 10° S 21:46:44 45° ESE 21:52:05 10° NE
SAR-Lupe-3 4.4 21:46:32 10° NNE 21:50:07 75° ESE 21:53:41 10° S
YAOGAN 6 3.6 21:47:46 10° S 21:51:15 46° W 21:54:48 10° NNW
ERS-2 3.8 21:48:01 10° SSW 21:51:21 33° W 21:54:43 10° NNW
Cosmos 405 3.3 21:48:18 10° N 21:51:43 46° ENE 21:53:43 21° SE
Cosmos 1624 Rocket 3.9 21:48:46 10° S 21:53:55 71° ESE 21:59:07 10° NNE
Cosmos 1190 Rocket 4.0 21:48:51 10° NNW 21:54:08 69° ENE 21:58:14 17° SSE
Resurs 01 Rocket 2.1 21:51:34 10° S 21:55:57 61° WSW 22:00:21 10° NNW
Cosmos 1151 Rocket 3.6 21:52:50 10° SSW 21:57:01 59° W 22:01:17 10° N
ATLAS 2AS CENTAUR R/B 4.0 21:50:33 10° NW 21:57:48 42° WSW 22:04:29 10° S
Cosmos 2098 Rocket 2.7 21:53:36 10° S 21:57:58 68° E 22:01:28 10° NNE
Spot 2 Rocket 3.7 21:58:11 10° S 22:03:16 73° WSW 22:08:22 10° NNW
Cosmos 1954 Rocket 4.4 22:00:23 10° N 22:05:23 45° ENE 22:08:08 24° ESE
Cosmos 1933 Rocket 4.5 22:01:47 10° NNW 22:06:00 47° W 22:10:09 10° SSW
Cosmos 1959 Rocket 4.5 22:01:01 10° S 22:07:11 84° W 22:13:19 10° N
SL-8 R/B 4.1 22:02:57 10° W 22:07:43 63° NNW 22:12:30 10° ENE
Cosmos 1727 Rocket 3.9 22:06:56 10° N 22:13:09 81° E 22:18:24 15° S
MetOp-A 4.2 22:10:49 22° SE 22:14:12 61° ENE 22:19:29 10° N
Cosmos 1869 3.9 22:10:18 10° SSW 22:14:15 59° W 22:18:14 10° N
Cosmos 1441 Rocket 3.1 22:12:11 22° S 22:14:24 60° E 22:18:07 10° NNE
Helios 1A 4.1 22:13:51 24° E 22:14:55 27° ENE 22:18:28 10° N
Cosmos 2297 3.7 22:13:56 10° NNW 22:19:38 84° WSW 22:23:18 23° SSE
Cosmos 2369 Rocket 3.6 22:15:19 10° N 22:19:55 24° NE 22:22:25 18° E
Terra 3.7 22:18:59 14° ENE 22:20:04 15° ENE 22:22:49 10° NNE
Cosmos 1707 Rocket 3.7 22:19:11 29° SSE 22:21:01 50° E 22:25:13 10° NNE
Cosmos 1933 3.8 22:21:30 36° ESE 22:22:14 40° E 22:26:03 10° NNE
ATLAS CENTAUR R/B 4.4 22:22:03 10° WNW 22:24:23 16° NW 22:26:49 10° N
Cosmos 614 Rocket 4.0 22:19:46 10° NNW 22:24:59 66° ENE 22:27:21 32° SE
NOSS 3-4 (A) 4.0 22:21:49 10° NW 22:28:52 73° WSW 22:33:43 24° SSE
NOSS 3-4 (C) 4.0 22:21:55 10° NW 22:28:58 74° WSW 22:33:48 24° SSE
Cosmos 1869 Rocket 3.5 22:24:47 10° N 22:29:10 88° W 22:31:16 30° S
Cosmos 2344 3.6 22:23:04 10° SSW 22:30:27 57° ESE 22:38:29 10° NE
ERS-1 Rocket 3.0 22:29:54 34° SE 22:31:58 61° ENE 22:36:55 10° N
SL-08 RB Rocket 3.6 22:31:59 38° SE 22:33:37 69° ENE 22:38:04 10° N
USA 267 4.5 22:30:44 10° ENE 22:33:29 20° E 22:33:29 20° E
BREEZE-M DEB (TANK) 4.0 22:34:55 10° NW 22:36:46 21° N 22:37:28 19° NNE
Meteor 1-4 Rocket 4.5 22:34:41 10° NNE 22:36:22 17° NE 22:36:22 17° NE
ATLAS 5 CENTAUR R/B 3.4 22:32:04 10° NNW 22:37:19 34° NE 22:40:22 22° E
Cosmos 1733 Rocket 3.9 22:33:24 10° N 22:37:22 33° ENE 22:37:38 32° E
Cosmos 1420 Rocket 4.1 22:35:20 27° S 22:37:59 55° ESE 22:43:11 10° NNE
Cosmos 2237 Rocket 4.0 22:33:21 10° WSW 22:38:20 32° NW 22:43:22 10° N
Cosmos 407 Rocket 4.3 22:36:38 10° NNW 22:41:31 47° WSW 22:44:42 20° SSW
BREEZE-M DEB (TANK) 3.3 22:42:09 10° WNW 22:46:32 31° N 22:47:21 26° NNE
Cosmos 2278 Rocket 4.4 22:42:59 10° NW 22:46:59 20° W 22:50:57 10° SW
Cosmos 405 Rocket 3.3 22:45:43 21° SSW 22:48:04 57° WNW 22:52:00 10° N
Cosmos 1241 Rocket 4.5 22:42:48 10° NNW 22:49:08 73° NE 22:51:37 39° SE
GEOS 3 Rocket 4.2 22:44:51 10° NE 22:49:10 37° ESE 22:49:10 37° ESE
Lacrosse 5 2.7 22:47:26 10° NW 22:52:16 42° NNE 22:53:59 31° ENE
SPOT 5 2.7 22:54:00 54° ESE 22:54:34 59° ENE 22:58:54 10° N
CZ-2C R/B 4.4 22:55:36 21° ENE 22:55:52 21° ENE 22:59:27 10° NNE
SPOT 1/Viking Rocket 3.6 22:57:25 49° SE 22:58:35 63° ENE 23:03:45 10° N
Cosmos 1437 Rocket 2.8 22:55:49 10° N 22:59:26 62° NE 22:59:26 62° NE
DMSP B5D2-2 4.0 22:58:03 10° NNE 23:03:18 66° ESE 23:04:20 53° SSE
Meteor 1-26 Rocket 4.1 23:03:34 51° SSE 23:04:45 65° E 23:10:17 10° NNE
Cosmos 1605 Rocket 4.4 23:03:51 41° ESE 23:04:46 43° E 23:10:45 10° NNE
H-2A R/B 2.3 23:04:34 37° SSW 23:06:23 59° W 23:11:17 10° NNW
SL-19 R/B 4.3 23:07:33 52° SE 23:08:47 69° ENE 23:14:24 10° NNW
Meteor 1-20 Rocket 4.1 23:10:15 10° N 23:15:41 61° ENE 23:16:15 57° ESE
Spot 1 4.2 23:16:23 70° E 23:16:37 72° ENE 23:21:17 10° N
ARGOS 4.2 23:14:37 24° SSW 23:17:16 39° W 23:22:17 10° NNW
Cosmos 2242 Rocket 3.5 23:17:35 74° NE 23:17:35 74° NE 23:21:42 10° N
Helios 1B rocket 2.7 23:14:12 10° NNE 23:17:39 59° NE 23:17:39 59° NE
RESURS DK-1 3.2 23:14:24 10° NNW 23:17:54 42° NE 23:17:54 42° NE
CZ-4C R/B 2.1 23:14:35 10° SW 23:19:45 83° NW 23:25:47 10° NE
Cosmos 1452 Rocket 4.1 23:15:28 12° SW 23:20:12 55° WNW 23:25:22 10° NNE
Cosmos 1943 Rocket 2.6 23:15:38 10° NNW 23:20:58 47° ENE 23:21:34 45° E
Cosmos 1934 Rocket 3.8 23:25:38 49° S 23:27:23 87° W 23:33:29 10° N
SL-16 R/B 4.0 23:26:05 10° WSW 23:31:00 30° NW 23:35:57 10° N
Cosmos 1908 Rocket 4.3 23:29:29 10° N 23:32:57 46° NE 23:32:57 46° NE
Cosmos 921 Rocket 3.4 23:35:25 58° N 23:35:25 58° N 23:38:57 10° NNE
Cosmos 1850 Rocket 4.1 23:31:47 10° NNW 23:36:55 65° WSW 23:37:13 63° SW
Cosmos 1862 Rocket 3.9 23:38:10 64° NW 23:38:10 64° NW 23:42:09 10° N
ATLAS 2A CENTAUR R/B 4.4 23:25:20 10° WSW 23:38:34 30° SSW 23:38:54 30° S
Landsat 7 3.9 23:39:27 68° W 23:39:27 68° W 23:44:09 10° NNW
Cosmos 1741 Rocket 4.4 23:41:27 10° NNW 23:46:39 55° WSW 23:46:53 55° WSW
Cosmos 1606 4.2 23:48:29 34° N 23:48:29 34° N 23:50:48 10° N
Gblst 52 Del rocket 4.2 23:45:36 10° WSW 23:51:06 73° NNW 23:56:42 10° ENE
Cosmos 1153 Rocket 4.4 23:52:53 68° ESE 23:53:03 69° E 23:59:23 10° NNE
